Мамонтово

Россия / Ханты-Мансийский автономный округ - Югра     60°45′37″N   72°44′58″E
темп.,
°C
ветер,
м/с
пор.,
м/с
влажн.,
%
обл.,
%
осадки,
мм/ч
давл.,
гПа
погр.,
м
23 апреля, пт
пт2323:000ю413745 0.0 1039367
02:00−1ю414753 0.0 1039356
05:00−1ю514745 0.0 1038382
08:00+3ю513635 0.0 1037477
11:00+7ю610515 0.0 1037786
14:00+10ю61053100 0.0 1035985
17:00+9ю5115970 0.0 1035986
20:00+5ю4137577 0.0 1035380
24 апреля, сб
сб2423:00+4ю41280100 0.0 1034350
02:00+3ю41183100 0.0 1032292
05:00+3ю4984100 0.0 1032249
08:00+3ю3982100 0.7 1031270
11:00+8ююз5752100 0.7 1030865
14:00+11ююз464498 0.0 10281642
17:00+10зюз245099 0.0 10281488
20:00+6св3588100 0.0 1028184
25 апреля, вс
вс2523:00+4в2691100 0.0 1027148
02:00+4ююв237891 0.0 102742
05:00+3ююв227791 0.0 102740
08:00+6ююв346150 0.0 1027264
11:00+10ююв45395 0.0 10261533
14:00+12ююв453161 0.0 10252223
17:00+11ююв4636100 0.0 10242102
20:00+8юв3951100 0.0 1023403
26 апреля, пн
пн2623:00+7юв41163100 0.0 1022425
02:00+5юв41272100 0.0 1020418
05:00+5вюв61469100 0.0 1017550
08:00+7юв61357100 0.0 1014663
11:00+10юв71251100 0.0 10111435
14:00+5ююв51094100 1.7 1010837
17:00+7зюз6127441 1.9 10101230
20:00+6ю387448 0.0 1010190
27 апреля, вт
вт2723:00+4ю411786 0.0 1010300
02:00+4юз51274100 0.0 1010546
05:00+4ююз4118469 0.1 1009761
08:00+6юз61063100 0.0 10081267
11:00+7юз6106598 0.5 10081393
14:00+8зюз61154100 0.7 10071799
17:00+10зюз5104623 0.9 10072006
20:00+6зюз38569 0.0 1006366